Simultaneous Nadir Overpasses (SNOs) Predictions

Prediction of SNOs between GOES-15 and NOAA-20 Satellite Orbit:

Table of predicted SNOs for the next 14.0 days since TLE Epoch: 10/7/2023
Index Date Time (GOES-15) GOES-15 Lat,Lon NOAA-20 Lat,Lon Distance(km) Time Diff (sec)
1 10/08/2023 07:42:25 -0.26, 89.21 -0.96, 86.19 344.82 80
2 10/09/2023 07:21:03 -0.27, 88.15 0.27, 90.68 287.92 80
3 10/10/2023 19:45:35 0.25, 86.55 0.50, 85.33 138.74 80
4 10/11/2023 19:24:11 0.27, 85.50 -0.68, 89.83 493.23 80
5 10/13/2023 07:46:12 -0.25, 83.83 -0.14, 84.45 69.79 80
6 10/14/2023 20:10:44 0.22, 82.21 0.89, 79.10 354.77 80
7 10/15/2023 19:49:20 0.25, 81.16 -0.29, 83.60 277.54 80
8 10/17/2023 08:14:01 -0.22, 79.51 -0.51, 78.21 147.21 80
9 10/18/2023 07:52:38 -0.24, 78.44 0.74, 82.70 486.21 80
10 10/19/2023 20:14:29 0.22, 76.83 0.12, 77.37 61.26 80
